TimeCET,TemperatureF,Dew PointF,Humidity,Sea Level PressureIn,VisibilityMPH,Wind Direction,Wind SpeedMPH,Gust SpeedMPH,PrecipitationIn,Events,Conditions,WindDirDegrees,DateUTC
12:20 AM,37.4,30.2,75,29.89,5.0,NNW,4.6,-,N/A,,Unknown,330,2012-12-06 23:20:00
12:50 AM,37.4,32.0,81,29.89,5.0,NNW,4.6,-,N/A,,Unknown,330,2012-12-06 23:50:00
1:20 AM,35.6,30.2,81,29.92,5.0,North,4.6,-,N/A,,Unknown,360,2012-12-07 00:20:00
1:50 AM,37.4,30.2,75,29.92,5.0,North,3.5,-,N/A,,Unknown,350,2012-12-07 00:50:00
2:20 AM,37.4,30.2,75,29.92,5.0,North,4.6,-,N/A,,Unknown,350,2012-12-07 01:20:00
2:50 AM,37.4,30.2,75,29.92,5.0,Variable,2.3,-,N/A,,Unknown,0,2012-12-07 01:50:00
3:20 AM,33.8,30.2,87,29.92,5.0,NNE,3.5,-,N/A,,Unknown,30,2012-12-07 02:20:00
3:50 AM,35.6,32.0,87,29.92,5.0,North,3.5,-,N/A,,Unknown,360,2012-12-07 02:50:00
4:20 AM,35.6,32.0,87,29.92,-9999.0,NNW,2.3,-,N/A,,Clear,330,2012-12-07 03:20:00
4:50 AM,33.8,30.2,87,29.92,-9999.0,North,2.3,-,N/A,,Clear,360,2012-12-07 03:50:00
5:20 AM,33.8,32.0,93,29.95,6.2,NNW,3.5,-,N/A,,Scattered Clouds,330,2012-12-07 04:20:00
5:50 AM,35.6,32.0,87,29.95,6.2,NNE,3.5,-,N/A,,Scattered Clouds,20,2012-12-07 04:50:00
6:20 AM,33.8,28.4,81,29.95,6.2,NNW,3.5,-,N/A,,Scattered Clouds,340,2012-12-07 05:20:00
6:50 AM,35.6,30.2,81,29.95,6.2,North,3.5,-,N/A,,Partly Cloudy,350,2012-12-07 05:50:00
7:20 AM,35.6,30.2,81,29.95,6.2,Variable,2.3,-,N/A,,Partly Cloudy,0,2012-12-07 06:20:00
7:50 AM,33.8,28.4,81,29.95,-9999.0,NNW,4.6,-,N/A,,Clear,340,2012-12-07 06:50:00
8:20 AM,37.4,32.0,81,29.98,-9999.0,Variable,2.3,-,N/A,,Clear,0,2012-12-07 07:20:00
8:50 AM,41.0,32.0,70,29.98,-9999.0,NNE,3.5,-,N/A,,Clear,20,2012-12-07 07:50:00
9:20 AM,42.8,32.0,66,29.98,-9999.0,North,3.5,-,N/A,,Clear,360,2012-12-07 08:20:00
9:50 AM,42.8,30.2,61,29.98,6.2,NNE,4.6,-,N/A,,Partly Cloudy,30,2012-12-07 08:50:00
10:20 AM,44.6,32.0,61,29.98,6.2,NE,4.6,-,N/A,,Partly Cloudy,40,2012-12-07 09:20:00
10:50 AM,46.4,32.0,57,29.98,6.2,NNE,2.3,-,N/A,,Partly Cloudy,30,2012-12-07 09:50:00
11:20 AM,46.4,33.8,62,29.95,6.2,Variable,2.3,-,N/A,,Partly Cloudy,0,2012-12-07 10:20:00
11:50 AM,50.0,32.0,50,29.95,6.2,Variable,2.3,-,N/A,,Partly Cloudy,0,2012-12-07 10:50:00
12:20 PM,53.6,35.6,51,29.95,6.2,Variable,2.3,-,N/A,,Scattered Clouds,0,2012-12-07 11:20:00
12:50 PM,53.6,41.0,62,29.92,6.2,SSE,4.6,-,N/A,,Scattered Clouds,160,2012-12-07 11:50:00
1:20 PM,53.6,41.0,62,29.92,6.2,South,4.6,-,N/A,,Scattered Clouds,170,2012-12-07 12:20:00
1:50 PM,51.8,41.0,67,29.92,6.2,South,4.6,-,N/A,Rain,Light Rain,190,2012-12-07 12:50:00
2:20 PM,50.0,44.6,82,29.89,6.2,Variable,3.5,-,N/A,Rain,Light Rain,0,2012-12-07 13:20:00
2:50 PM,50.0,46.4,87,29.89,6.2,Variable,1.2,-,N/A,,Mostly Cloudy,0,2012-12-07 13:50:00
3:20 PM,50.0,46.4,87,29.89,6.2,NNE,3.5,-,N/A,,Mostly Cloudy,20,2012-12-07 14:20:00
3:50 PM,50.0,44.6,82,29.89,6.2,NE,4.6,-,N/A,,Mostly Cloudy,50,2012-12-07 14:50:00
4:20 PM,48.2,44.6,87,29.86,6.2,ENE,3.5,-,N/A,,Mostly Cloudy,70,2012-12-07 15:20:00
4:50 PM,48.2,44.6,87,29.86,3.1,North,5.8,-,N/A,Rain,Rain,350,2012-12-07 15:50:00
5:20 PM,48.2,44.6,87,29.86,3.1,Variable,2.3,-,N/A,Rain,Light Rain,0,2012-12-07 16:20:00
5:50 PM,48.2,44.6,87,29.86,4.3,East,3.5,-,N/A,,Mostly Cloudy,100,2012-12-07 16:50:00
6:20 PM,48.2,44.6,87,29.86,3.1,ENE,3.5,-,N/A,Rain,Rain,60,2012-12-07 17:20:00
6:50 PM,48.2,46.4,93,29.83,3.1,SSE,3.5,-,N/A,Rain,Light Rain,150,2012-12-07 17:50:00
7:20 PM,48.2,46.4,93,29.83,4.3,Variable,2.3,-,N/A,,Mostly Cloudy,0,2012-12-07 18:20:00
7:50 PM,48.2,46.4,93,29.83,5.0,SW,5.8,-,N/A,,Mostly Cloudy,230,2012-12-07 18:50:00
8:20 PM,51.8,46.4,82,29.80,2.5,WSW,4.6,-,N/A,Rain,Rain,240,2012-12-07 19:20:00
8:50 PM,50.0,46.4,87,29.80,5.0,Variable,2.3,-,N/A,,Mostly Cloudy,0,2012-12-07 19:50:00
9:20 PM,53.6,42.8,67,29.80,5.0,SW,12.7,-,N/A,,Mostly Cloudy,230,2012-12-07 20:20:00
9:50 PM,53.6,41.0,62,29.77,6.2,SW,9.2,-,N/A,,Scattered Clouds,220,2012-12-07 20:50:00
10:20 PM,55.4,42.8,63,29.77,6.2,SSW,12.7,-,N/A,,Scattered Clouds,210,2012-12-07 21:20:00
10:50 PM,55.4,44.6,67,29.74,6.2,SSW,11.5,-,N/A,,Scattered Clouds,210,2012-12-07 21:50:00
11:20 PM,55.4,46.4,72,29.71,6.2,SSW,15.0,26.5,N/A,Rain,Light Rain,200,2012-12-07 22:20:00
11:50 PM,-9999,-9999,N/A,-9999,-9999.0,SW,15.0,27.6,N/A,,Unknown,230,2012-12-07 22:50:00